Location: Chuathbaluk
(61.5726°N, 159.2454°W)
Time: 17:37:09
(UTC+00:00)

ITAMSAT 1 - Pass Details

Date: 26 January 2021
Orbit: 784 x 796 km, 98.9° (Epoch: 05 March)

Event Time Altitude Azimuth Distance (km) Brightness Sun altitude
Rises 03:39:15 0° 157° (SSE) 3,273 10.9 -8.4°
Reaches altitude 10° 03:41:33 10° 158° (SSE) 2,347 10.1 -8.6°
Maximum altitude 03:46:45 89° 69° (ENE) 795 7.7 -9.2°
Drops below altitude 10° 03:51:58 10° 341° (NNW) 2,359 10.1 -9.8°
Sets 03:54:18 0° 341° (NNW) 3,292 10.9 -10.0°
